Tracking 19245 objects as of 17-Aug-2018
HD Live streaming from Space Station
objects crossing your sky now

FENGYUN 1C DEB

Track FENGYUN 1C DEB now!
10-day predictions


NORAD ID: 30545
Int'l Code: 1999-025AKK
Perigee: 834.8 km
Apogee: 1,555.5 km
Inclination: 99.0 °
Period: 109.2 minutes
Semi major axis: 7566 km
RCS: 0.011 m2 (small)
Launch date: May 10, 1999
Source: People's Republic of China (PRC)
Launch site: Taiyaun Space Center, China (TSC)

Note: This is SATELLITE DEBRIS
aabbcc
Your satellite tracking list
Your tracking list is empty




NASA's NSSDC Master Catalog

Two Line Element Set (TLE):
1 30545U 99025AKK 18228.98868028  .00000005  00000-0  58409-4 0  9997
2 30545  98.9920  49.2969 0476211 352.4358 157.9161 13.19136999556924
Source of the keplerian elements: AFSPC